utilisation pie
utilisation bar
humidity graph
temperature graph
Station id: f3370e for 2 days

start:   stop:  

day time in temp out temp in RH out RH H quota rule action
2020-11-24 00:22:58 8.4 8.5 82 90 111 h 0
2020-11-24 00:53:11 8.4 8.2 82 91 110 h 0
2020-11-24 01:23:23 8.4 8.4 82 89 109 h 0
2020-11-24 01:53:35 8.3 8.1 82 89 107 h 0
2020-11-24 02:23:47 8.3 7.7 82 91 106 h 0
2020-11-24 02:53:59 8.3 7.8 82 90 106 h 0
2020-11-24 03:24:11 8.3 7.9 82 90 107 h 0
2020-11-24 03:54:35 8.3 7.9 82 91 108 h 0
2020-11-24 04:24:47 8.3 8.0 82 91 108 h 0
2020-11-24 04:54:58 8.2 8.1 83 91 109 h 0
2020-11-24 05:25:10 8.2 8.0 83 91 108 h 0
2020-11-24 05:55:22 8.2 8.0 83 91 108 m
2
2020-11-24 06:25:33 8.2 7.6 83 92 106 m
2
2020-11-24 06:55:45 8.2 7.4 84 93 105 m
2
2020-11-24 07:25:57 8.2 7.4 84 94 106 m
2
2020-11-24 07:56:08 8.2 7.2 84 94 105 m
2
2020-11-24 08:26:20 8.1 7.1 85 95 105 m
2
2020-11-24 08:56:31 8.1 7.1 85 95 105 m
2
2020-11-24 09:26:43 8.1 7.3 85 96 107 m
2
2020-11-24 09:56:55 8.1 7.5 86 95 107 m
2
2020-11-24 10:27:28 8.1 7.6 86 95 107 m
2
2020-11-24 10:57:39 8.1 7.7 86 95 108 m
2
2020-11-24 11:27:51 8.1 8.0 86 95 110 m
2
2020-11-24 11:58:02 8.1 8.3 85 95 113 m
2
2020-11-24 12:28:14 8.1 8.5 85 95 115 m
2
2020-11-24 12:58:26 8.1 8.6 85 95 115 m
2
2020-11-24 13:28:37 8.2 8.7 85 96 117 m
2
2020-11-24 13:58:49 8.2 8.8 86 96 117 m
2
2020-11-24 14:29:00 8.2 8.8 86 96 116 m
2
2020-11-24 14:59:12 8.2 8.8 86 96 115 m
2
2020-11-24 15:29:23 8.3 8.8 86 96 115 m
2
2020-11-24 15:59:35 8.3 8.9 86 96 116 m
2
2020-11-24 16:29:46 8.3 9.1 86 94 114 m
2
2020-11-24 16:59:58 8.4 9.3 87 94 115 m
2
2020-11-24 17:30:10 8.4 9.2 87 96 116 m
2
2020-11-24 18:00:21 8.4 9.3 87 96 117 m
2
2020-11-24 18:30:33 8.5 9.4 87 95 116 m
2
2020-11-24 19:00:44 8.5 9.4 87 95 116 m
2
2020-11-24 19:30:56 8.5 9.3 87 95 115 m
2
2020-11-24 20:01:08 8.5 9.2 87 95 114 m
2
2020-11-24 20:31:20 8.6 9.2 87 97 116 m
2
2020-11-24 21:01:32 8.6 9.1 88 97 114 m
2
2020-11-24 21:31:44 8.6 9.1 88 96 112 m
2
2020-11-24 22:01:56 8.6 9.0 88 95 111 m
2
2020-11-24 22:32:09 8.6 9.1 89 94 109 m
2
2020-11-24 23:02:20 8.6 9.0 89 94 109 m
2
2020-11-24 23:32:32 8.6 8.8 88 95 109 m
2
2020-11-25 00:02:44 8.6 8.8 88 95 109 m
2
2020-11-25 00:32:56 8.6 8.9 88 93 107 m
2
2020-11-25 01:03:08 8.6 8.8 88 93 107 m
2
2020-11-25 01:33:20 8.6 8.5 88 94 107 m
2
2020-11-25 02:03:33 8.6 8.3 87 94 105 m
2
2020-11-25 02:33:45 8.6 8.2 87 95 106 m
2
2020-11-25 03:03:57 8.6 8.2 87 95 106 m
2
2020-11-25 03:34:10 8.6 8.2 87 93 104 m
2
2020-11-25 04:04:22 8.6 8.2 87 93 104 m
2
2020-11-25 04:34:56 8.6 8.0 87 94 104 m
2
2020-11-25 05:05:07 8.6 7.9 87 94 103 m
2
2020-11-25 05:35:19 8.6 7.8 87 93 102 m
2


2020-11-25 06:32:13 CET